Theta_e
344 346 344 343 345 348 350 351 355 357 359 352 352 358 360 362 362 363 362 359 358 356 353 348 346 348 352 349 350 351 350 351 348 344 341 348 350 348 349 349 351 351 352 352 352 352 352 352 352 353 354 352 350 351 350 350 349 347 344 339 338 339 341 346 348 349 349 349 347 346 347 349 350 350 350 350 351 351 351 351 352 351 350 352 352 352 352 352 352 353 353 352 352 352 351 351 351
346 345 343 344 346 350 354 353 354 356 356 351 353 359 359 363 362 363 362 360 360 354 348 346 347 353 352 347 348 349 350 349 347 347 347 349 350 349 348 349 352 352 352 352 352 352 352 352 351 352 353 353 352 352 351 350 349 347 344 340 339 338 342 347 348 349 350 349 347 347 349 350 351 351 351 351 351 351 352 351 352 351 349 350 350 350 351 351 351 351 352 352 351 351 351 351 350
346 345 345 347 348 351 355 356 355 354 351 348 353 362 361 363 364 362 361 360 357 350 348 348 351 354 350 349 351 350 351 347 345 346 347 349 350 350 348 348 350 351 352 353 353 353 352 351 352 353 351 351 351 351 349 348 348 346 345 342 339 339 345 349 349 350 351 349 347 347 350 351 352 351 351 351 351 351 352 351 351 351 351 350 350 350 350 350 350 350 351 351 351 351 351 351 349
345 345 346 349 351 353 359 358 358 356 349 345 350 361 363 363 363 361 360 358 352 348 349 351 353 353 352 352 351 351 351 347 346 347 348 350 350 350 348 347 349 351 352 353 354 353 352 351 352 353 351 350 349 349 349 349 349 348 345 341 341 343 348 349 349 351 351 349 346 348 350 351 351 352 351 351 352 351 350 350 351 351 351 351 350 349 350 350 350 351 351 350 350 349 350 350 349
346 346 347 351 355 356 360 360 360 358 351 349 351 361 364 361 363 360 359 355 350 349 350 353 355 353 353 352 351 352 350 346 347 348 349 350 350 350 349 347 349 352 353 353 353 354 352 351 352 352 350 349 349 349 349 349 347 346 342 340 344 347 349 350 351 352 351 348 347 349 350 351 352 352 352 352 351 350 350 350 351 351 350 351 351 350 350 351 351 350 350 349 349 349 348 348 348
346 347 347 351 355 354 360 360 359 359 357 358 357 363 364 361 362 359 358 356 352 352 352 355 354 353 352 350 350 350 348 347 348 349 350 350 350 350 350 348 349 352 353 353 353 353 352 351 352 352 351 350 350 349 348 346 342 339 338 342 348 350 350 351 352 353 352 349 347 349 350 352 352 352 352 352 351 350 351 351 351 351 351 351 351 351 351 350 350 349 348 348 350 350 348 348 347
347 350 351 353 355 356 362 360 359 359 359 362 361 364 363 361 361 358 358 357 356 354 353 354 351 353 354 350 350 350 349 349 348 349 350 350 350 350 350 349 350 352 352 353 352 353 352 351 352 351 351 350 350 350 347 344 337 335 340 347 351 351 352 352 352 353 353 350 349 349 350 351 350 351 352 352 352 352 351 351 351 351 351 350 350 352 350 349 349 349 349 350 350 350 349 349 348
349 353 353 356 360 360 362 359 359 360 360 362 362 363 361 361 359 358 359 357 357 354 353 353 350 355 354 350 352 351 350 350 349 350 350 350 351 351 350 350 351 352 352 352 352 352 351 351 351 351 351 351 350 349 347 345 340 341 347 351 352 353 353 353 352 354 353 351 351 351 350 351 351 350 351 352 352 351 351 350 351 351 350 350 350 351 349 350 350 350 351 350 350 350 349 349 349
352 354 354 358 361 359 357 358 361 362 363 364 362 362 360 359 358 358 359 357 356 353 353 352 350 356 354 352 353 351 351 351 350 350 350 351 351 351 351 351 351 352 352 352 352 351 351 351 351 350 350 351 350 350 349 348 348 349 351 353 353 353 353 353 353 353 353 352 352 351 351 352 352 351 351 351 351 351 351 350 351 351 348 349 350 349 349 351 350 350 350 350 350 350 349 349 348
353 354 357 359 358 354 351 356 363 365 365 363 362 361 359 358 358 358 358 358 355 353 353 350 351 354 352 353 353 351 351 351 350 350 350 351 352 352 352 352 352 352 352 351 352 352 352 351 350 350 350 351 351 351 351 352 353 352 352 353 352 353 354 353 353 353 352 352 352 352 352 352 352 352 351 351 351 351 351 350 351 351 347 346 349 349 349 350 350 349 349 350 350 350 350 349 348
354 353 357 359 354 350 348 356 364 366 365 362 362 360 359 358 359 358 358 357 354 353 352 351 353 352 352 353 352 351 351 350 350 350 350 352 352 352 352 352 352 352 352 352 352 352 351 351 351 350 350 351 352 352 352 352 352 351 352 353 352 353 353 353 353 352 350 351 352 352 351 351 352 351 350 350 350 351 351 351 351 351 348 346 347 348 349 349 349 348 348 347 348 350 351 349 347
357 356 359 360 355 353 353 358 364 367 365 363 362 360 358 358 359 358 358 356 353 353 352 353 353 351 352 353 352 352 350 350 350 350 351 351 352 352 352 352 352 352 352 352 352 352 351 352 351 350 350 352 352 352 353 353 352 351 353 353 353 353 352 352 352 351 351 351 352 352 351 350 351 351 349 349 350 351 351 351 352 351 350 349 349 348 349 350 349 349 347 346 348 350 350 349 347
356 358 360 359 358 360 359 362 366 367 367 365 362 359 358 359 360 358 357 356 354 354 353 352 351 350 353 352 351 350 349 350 350 350 351 351 351 352 352 352 352 352 352 352 352 352 352 352 352 350 350 352 352 353 354 354 353 352 352 352 352 353 352 352 351 351 351 351 352 352 351 349 349 350 350 350 350 350 350 351 351 351 350 350 350 350 348 348 349 349 349 349 350 351 350 349 348
355 357 359 358 359 363 362 363 366 364 364 365 361 359 359 360 360 356 356 356 355 354 352 350 348 351 353 352 352 347 347 350 350 350 350 351 351 352 352 352 352 352 352 352 352 352 352 352 352 351 351 352 352 353 354 354 354 352 352 352 352 354 353 351 352 352 351 351 352 351 350 350 348 349 349 350 351 350 350 350 350 350 349 350 350 350 349 349 350 350 349 349 350 351 350 350 348
354 355 358 359 357 360 360 363 366 362 362 365 360 359 360 360 359 356 356 358 356 350 350 350 348 352 352 351 351 347 348 350 349 350 350 351 351 351 351 352 352 352 352 352 352 352 352 352 352 351 351 352 352 353 354 354 354 353 352 352 352 354 353 351 352 352 350 350 351 350 350 350 349 350 350 350 350 350 350 349 349 349 349 348 349 349 349 350 351 350 349 348 348 350 350 350 350
353 354 358 357 353 354 357 362 363 361 363 364 360 359 360 359 359 358 357 357 355 349 349 351 348 350 350 349 349 348 350 350 349 350 350 351 351 351 351 351 352 352 352 352 352 352 352 352 351 351 351 352 352 353 353 354 354 353 352 352 353 354 353 352 351 350 350 350 349 349 349 350 350 350 350 350 351 351 350 350 349 348 348 347 348 349 348 349 351 351 350 350 350 350 351 350 351
351 356 359 354 351 352 356 362 362 361 365 364 360 359 360 360 358 357 356 355 353 351 350 349 348 348 347 348 350 350 350 349 350 350 350 350 350 350 350 351 352 351 351 351 352 352 352 351 351 351 352 351 352 352 352 353 353 352 351 352 354 353 353 353 351 351 351 350 349 349 350 350 350 350 350 350 351 351 350 351 349 347 347 347 349 348 346 349 351 351 352 351 351 351 351 351 351
354 359 357 350 352 354 356 362 362 363 365 363 361 359 360 361 359 356 355 355 354 353 351 349 348 349 349 351 351 350 349 350 350 350 350 350 350 350 350 350 351 351 352 352 351 351 351 351 351 351 352 352 351 351 352 353 352 352 352 353 354 352 352 352 351 351 351 351 349 349 350 350 350 350 349 349 350 350 350 350 350 348 346 345 347 344 345 350 350 351 352 350 350 349 350 351 352
356 358 355 352 355 355 354 358 359 362 363 362 361 360 360 360 358 357 357 357 356 355 352 350 350 349 350 351 351 350 350 350 350 350 349 349 349 349 349 350 350 351 351 352 351 351 351 350 351 352 352 352 351 351 352 353 351 352 352 352 352 352 352 352 352 351 350 349 349 349 350 350 349 349 348 349 350 349 350 350 350 350 347 345 345 345 348 351 351 351 350 348 349 348 349 350 352
355 355 355 355 355 353 353 358 358 360 362 362 361 360 360 359 356 358 359 357 356 356 353 351 351 350 349 349 350 350 350 350 350 350 350 349 349 349 349 350 350 350 350 351 352 352 351 351 351 352 352 352 352 352 352 353 352 352 352 351 351 351 352 353 354 353 351 349 347 349 350 350 349 349 348 349 350 349 350 350 350 350 348 346 347 349 350 350 349 349 348 348 350 350 351 351 351
354 355 357 355 354 353 353 358 360 358 360 362 362 361 360 357 356 358 358 357 358 356 352 351 351 349 348 347 349 350 350 350 350 350 350 349 349 349 350 349 349 350 350 351 352 352 351 351 351 352 352 351 352 352 352 352 352 352 352 351 351 351 352 353 354 354 352 349 348 349 349 349 349 349 350 350 350 350 350 350 350 350 349 347 347 349 349 348 348 349 348 349 350 351 351 351 351
351 353 354 353 353 353 351 356 360 358 359 362 361 361 359 356 357 358 357 359 359 354 350 349 349 348 347 347 349 351 350 350 350 350 350 350 349 350 350 350 349 350 351 352 352 352 351 351 352 352 352 352 352 352 352 352 351 352 352 352 352 352 351 352 352 351 351 350 349 349 348 349 349 350 350 350 350 350 349 350 349 349 349 348 347 349 348 347 349 348 349 349 350 351 351 350 349
349 350 348 348 349 350 350 352 358 357 359 362 361 360 358 356 357 357 357 358 356 352 349 348 349 349 348 348 350 349 348 350 351 350 350 349 350 349 350 350 350 350 351 352 352 352 351 352 352 352 352 352 352 352 351 352 352 351 352 352 352 352 351 352 351 350 349 349 348 348 348 349 350 349 350 349 349 350 349 349 348 348 348 347 347 350 349 347 348 348 348 349 350 351 351 350 349
347 348 345 345 344 346 346 348 356 357 359 361 359 359 358 358 359 357 357 356 352 350 348 349 351 351 350 349 349 348 349 351 351 350 350 349 349 349 350 350 350 351 351 352 352 352 352 352 352 352 352 352 351 351 352 352 352 352 352 352 352 351 352 352 351 349 349 349 348 347 347 348 349 349 350 350 349 350 349 348 347 347 348 347 347 349 349 348 348 347 347 347 349 350 351 351 350
345 346 345 344 342 342 341 346 355 357 358 359 357 360 359 358 360 359 357 355 351 350 348 349 350 349 349 348 347 349 350 351 351 350 351 349 349 349 349 350 350 351 351 351 352 352 352 352 351 352 352 351 350 351 352 352 352 352 352 352 352 351 352 351 350 349 349 349 348 348 347 348 349 349 350 350 349 350 349 348 348 348 348 348 348 349 349 349 348 347 347 347 347 349 351 351 351
342 343 342 339 337 335 338 347 356 357 357 358 359 361 360 358 358 359 357 353 350 349 349 348 348 347 348 348 347 349 349 351 351 350 351 350 349 349 349 350 349 350 350 351 351 351 352 352 352 352 352 351 350 351 351 352 352 352 352 352 351 351 351 351 349 350 350 349 348 348 348 348 349 348 348 348 348 349 348 348 349 349 349 348 349 350 349 349 349 347 347 347 347 348 350 350 351
335 335 334 331 335 337 339 350 356 357 358 358 360 362 359 356 358 360 356 352 350 350 351 348 348 348 347 348 348 351 351 351 352 351 351 350 349 349 349 349 349 350 351 351 351 351 352 352 352 352 352 352 351 351 351 351 351 351 351 351 351 351 349 349 350 350 350 349 349 348 348 348 349 348 347 348 348 348 347 348 349 350 350 349 350 350 350 350 350 348 347 347 347 348 349 349 350
328 330 329 331 344 348 347 354 357 357 360 357 358 362 359 357 358 360 356 351 350 351 352 349 348 348 347 348 348 351 352 351 352 351 351 350 349 348 348 349 349 350 351 351 351 351 352 352 352 352 353 352 351 351 351 351 351 350 351 351 351 350 347 348 349 349 349 350 350 349 349 349 349 347 346 347 347 348 348 348 349 351 351 350 349 349 350 349 349 350 347 347 347 347 347 348 350
328 329 329 334 348 355 354 356 357 358 360 356 356 359 359 361 358 357 354 351 351 351 351 350 349 348 348 348 348 350 352 352 352 352 351 351 350 349 348 349 350 351 351 351 351 352 352 352 352 352 352 352 351 352 351 351 351 351 351 350 350 349 348 349 349 348 348 349 350 350 350 350 350 348 348 347 348 349 349 349 350 351 351 350 350 350 350 349 349 351 349 347 347 347 348 349 350
329 328 327 332 338 350 358 357 356 358 358 356 356 350 353 363 359 354 354 352 351 352 352 351 349 349 348 349 348 349 351 352 352 352 352 351 350 350 349 350 350 351 351 351 351 352 352 352 353 352 352 351 351 351 351 351 352 351 351 350 349 349 350 350 349 347 347 348 349 350 350 350 350 349 349 349 349 350 350 350 350 351 350 350 350 350 350 350 350 351 351 349 348 349 350 350 351
329 327 327 331 326 336 358 357 357 361 355 356 356 345 348 360 358 354 354 351 352 353 353 351 350 349 349 349 349 348 350 352 352 353 353 352 351 350 349 350 350 351 352 352 351 352 352 352 353 352 352 352 351 351 351 352 352 351 351 351 350 350 350 350 350 348 347 348 349 349 349 350 350 350 350 349 349 350 351 350 350 350 350 350 350 350 351 351 351 351 351 350 349 350 350 350 351
329 326 325 327 320 333 360 357 355 361 356 356 355 346 349 356 356 355 354 351 353 354 353 352 350 350 349 349 349 348 349 351 352 353 352 352 351 350 350 350 350 351 352 352 352 352 352 352 353 352 352 351 351 351 351 352 351 350 350 350 350 349 348 349 349 349 349 348 348 349 349 350 350 350 349 349 348 350 350 350 350 350 350 351 351 351 352 352 352 350 350 350 350 351 350 350 351
328 326 322 319 320 335 355 355 356 358 357 358 355 351 353 354 354 354 354 352 352 354 354 353 351 351 350 350 349 349 349 350 352 352 353 352 352 350 350 350 350 351 351 352 352 352 352 352 352 353 352 350 351 351 352 352 350 349 349 349 348 346 347 349 348 348 349 348 349 350 350 349 349 349 347 348 348 348 348 349 350 349 350 351 351 352 352 352 351 349 349 349 348 350 351 350 351
325 325 321 317 325 338 344 352 358 355 357 361 358 358 356 353 355 355 354 353 352 354 354 353 352 351 351 350 349 349 349 349 350 352 353 352 352 351 350 350 350 351 352 352 352 352 353 353 353 353 352 349 348 349 351 351 350 349 348 346 345 344 346 350 349 348 349 349 350 350 349 348 348 348 347 348 349 348 348 350 351 350 350 352 351 352 352 352 351 350 350 349 346 348 351 351 350
323 322 320 318 325 334 339 349 357 357 359 360 359 360 358 356 355 356 354 353 352 354 354 353 352 351 351 351 349 350 349 348 350 352 353 352 352 351 350 350 350 351 352 352 352 353 353 353 353 353 352 349 347 346 348 350 351 350 348 346 345 344 345 348 349 349 350 350 350 350 350 348 347 347 347 348 349 348 349 351 351 351 351 352 352 352 353 352 352 351 351 349 347 347 349 349 349
325 323 322 320 321 325 332 338 345 356 360 359 361 358 358 359 355 356 355 353 354 353 353 354 353 352 351 350 350 350 350 349 350 352 352 352 352 351 350 350 350 351 352 353 352 352 353 353 353 353 352 350 347 345 347 350 352 351 351 350 348 348 347 349 350 350 351 350 350 350 349 348 347 347 347 348 348 348 350 351 351 352 353 352 352 353 354 352 352 353 351 348 348 349 348 347 347
328 327 325 323 321 321 327 328 329 350 358 354 360 359 359 360 356 356 355 353 355 353 354 354 353 353 352 351 350 350 350 349 350 351 351 352 351 351 351 350 350 351 352 353 353 352 352 352 353 354 353 350 347 346 348 351 353 353 353 352 351 351 351 350 351 351 350 350 350 351 349 348 347 347 348 348 348 348 349 350 351 352 354 353 353 354 354 353 353 353 351 347 348 352 352 349 347
328 328 325 323 323 322 326 326 323 341 352 349 359 360 358 360 356 356 355 355 356 353 354 354 353 353 352 352 351 350 350 349 349 350 350 351 351 351 351 350 351 351 353 353 353 353 352 352 353 353 354 352 347 346 347 349 351 352 353 353 353 354 352 352 353 351 350 350 350 350 349 347 347 347 348 347 347 348 349 350 350 351 353 353 352 353 354 354 353 353 353 350 348 351 352 349 345
327 328 325 322 323 322 324 326 327 340 346 345 354 354 351 356 357 356 355 355 356 354 353 353 353 353 352 351 351 350 350 349 349 348 350 350 350 351 350 351 351 351 353 353 353 354 353 353 354 352 353 353 349 345 345 346 347 347 349 351 352 354 353 352 353 351 350 350 350 350 349 347 347 347 348 348 348 349 350 350 350 350 351 353 353 353 353 353 354 354 354 354 353 350 349 347 344
328 327 324 321 324 322 318 322 330 340 342 342 349 345 341 349 353 355 355 354 355 354 353 352 353 352 351 350 349 350 350 350 349 347 349 350 350 351 350 351 352 351 352 353 353 354 354 354 353 350 351 351 349 346 345 346 346 345 346 348 349 352 352 351 351 351 350 350 350 350 350 348 347 347 348 349 349 350 350 350 350 351 351 352 355 354 355 354 354 354 352 352 353 351 349 347 345
327 327 326 324 325 324 321 322 326 330 333 341 343 331 330 344 349 352 354 354 355 354 353 353 353 351 351 350 349 348 348 348 349 348 347 349 350 350 350 351 351 351 352 353 354 354 354 354 352 349 348 349 349 346 345 346 347 347 347 348 350 351 352 352 353 353 351 350 351 351 350 348 347 348 349 349 350 350 350 350 350 351 351 352 354 355 355 354 353 353 352 351 351 351 350 349 346
325 326 327 327 327 327 325 325 323 319 319 332 336 321 322 340 348 350 353 355 356 355 355 354 352 353 351 350 350 348 348 347 347 348 347 349 350 350 351 351 351 352 352 352 353 353 354 353 351 350 349 349 349 347 346 346 348 348 349 351 353 353 354 355 354 355 353 351 352 352 350 349 347 348 349 349 350 351 351 351 351 352 352 353 354 354 353 352 353 353 352 351 351 350 350 351 348
322 325 327 327 328 327 326 325 321 315 314 327 335 320 318 329 339 350 355 355 358 355 355 355 353 353 351 350 350 348 348 347 346 347 348 348 350 350 351 351 350 351 351 352 353 353 354 353 350 350 349 349 348 348 346 346 347 348 348 352 353 354 356 355 352 352 352 350 352 352 351 350 349 348 348 348 350 351 351 352 351 352 352 353 354 353 353 354 355 353 351 350 351 348 350 353 350
322 324 326 326 327 326 326 325 320 318 316 323 335 329 321 322 333 350 355 354 359 359 357 356 354 353 353 351 350 349 348 347 347 346 346 348 349 350 351 351 350 350 351 351 352 353 354 353 351 350 350 350 349 347 346 345 346 347 348 351 353 353 354 353 350 349 350 350 351 351 352 352 351 350 349 348 349 349 350 351 352 352 352 353 354 354 355 355 355 352 350 350 349 347 348 352 352
324 324 324 325 327 326 326 324 319 320 316 316 328 333 324 322 334 352 358 354 355 357 356 356 356 354 353 351 349 349 348 347 347 346 346 348 349 350 350 350 350 350 351 351 351 352 353 353 351 351 351 350 349 347 345 345 345 346 348 351 352 352 352 352 349 349 349 349 351 351 351 352 352 352 351 350 349 349 349 350 352 352 352 353 354 355 355 354 353 353 351 351 350 349 347 348 352
324 322 322 323 324 324 324 323 318 317 316 314 322 329 320 319 333 344 347 346 345 347 350 352 355 354 353 353 350 350 348 348 347 346 347 348 348 348 349 350 350 350 350 351 351 351 352 353 352 351 351 350 350 347 346 345 345 346 347 350 352 351 350 350 350 350 349 349 351 351 351 351 352 352 352 351 350 350 351 351 351 352 353 353 354 356 356 353 353 353 352 352 352 350 348 347 351
321 321 323 322 322 323 322 322 318 316 317 314 317 327 321 319 329 334 337 343 345 348 348 349 353 353 353 353 351 350 349 348 348 347 348 349 348 348 348 349 350 350 351 351 351 351 352 353 352 352 351 350 350 348 347 346 345 346 347 349 351 351 350 350 350 350 349 349 350 351 350 350 350 351 352 351 350 350 353 353 352 352 353 353 353 355 356 356 355 355 354 354 353 352 351 350 352
321 322 322 318 319 321 318 318 318 316 317 314 315 325 323 321 328 332 338 347 348 348 348 347 349 350 352 352 351 351 349 349 348 347 348 349 349 348 348 349 349 350 351 351 351 351 351 352 352 353 352 351 350 349 348 347 346 346 346 348 351 351 350 350 350 349 349 349 350 350 350 349 349 349 350 351 350 349 351 354 355 354 354 353 354 355 356 357 357 356 355 354 354 353 353 352 353
321 320 318 316 316 318 317 317 317 316 317 314 316 325 326 325 330 334 342 348 346 346 346 345 345 346 349 351 351 351 349 349 348 348 349 348 349 349 348 348 350 350 351 351 351 351 351 352 352 353 352 351 350 350 349 348 347 346 346 348 350 351 351 350 350 350 349 348 349 349 349 349 348 348 348 349 349 348 348 350 353 355 355 353 354 355 356 356 356 356 355 355 355 354 354 354 355
319 318 316 316 316 318 318 318 317 316 315 314 318 327 326 325 330 336 344 345 343 344 344 344 345 344 345 347 349 350 350 349 349 348 348 348 350 351 349 348 350 351 351 350 351 351 351 351 351 352 352 351 350 350 350 349 348 346 346 348 349 350 351 350 350 350 349 348 348 348 348 348 347 346 346 346 347 347 347 346 348 351 354 353 354 355 355 355 356 356 355 356 356 356 355 355 355
316 317 318 317 316 317 318 316 316 315 314 315 321 324 322 325 329 334 342 342 340 341 342 344 344 343 344 344 346 349 349 349 349 349 348 348 350 351 349 349 349 349 350 350 351 351 351 351 350 351 352 351 350 350 350 349 349 348 347 348 349 350 351 351 350 350 350 349 348 348 348 348 347 346 345 345 345 346 346 346 345 346 348 350 353 355 355 355 356 356 355 356 356 356 355 355 355
315 316 317 316 315 317 318 315 316 315 313 317 320 319 320 326 330 333 339 342 341 338 340 343 343 343 343 343 344 346 348 349 349 349 349 349 351 351 351 350 348 349 350 349 350 351 351 351 350 350 350 350 349 350 350 349 349 349 349 349 349 349 350 351 351 350 350 349 348 347 347 347 348 346 344 343 343 344 345 345 345 345 345 347 351 354 355 355 355 355 355 355 355 355 355 355 354
316 315 314 315 315 318 318 316 316 315 313 316 317 318 321 323 325 333 340 342 341 338 338 341 342 343 343 343 343 343 344 346 348 350 349 350 351 351 351 350 348 348 348 349 351 351 351 350 350 350 350 351 350 349 350 349 350 350 349 349 349 350 350 350 350 350 350 349 348 348 347 347 347 346 345 343 342 343 344 345 345 345 345 345 348 351 354 354 354 355 355 354 355 355 355 354 354
315 314 314 316 315 317 319 317 316 314 313 317 319 320 324 324 326 335 342 343 342 338 337 339 340 342 343 343 342 342 342 344 346 349 349 350 351 351 351 350 349 348 348 349 350 350 350 349 350 350 350 351 350 350 350 350 350 350 350 349 350 349 350 350 351 351 350 349 348 347 347 347 346 346 346 343 343 343 343 344 344 344 344 345 345 347 350 353 353 354 354 354 353 354 354 355 354
313 313 313 315 315 317 319 317 316 314 314 319 321 321 324 325 327 335 341 342 343 340 338 337 337 339 341 341 341 341 341 342 344 347 348 349 351 351 351 350 349 348 348 348 349 349 349 349 350 350 350 350 349 350 350 349 349 350 350 349 349 349 349 350 350 350 350 349 348 347 346 346 346 346 345 344 343 343 342 342 341 341 342 343 344 345 346 349 351 352 353 354 354 352 352 354 355
312 313 313 314 315 317 318 317 316 315 317 320 322 321 322 322 326 335 341 341 341 341 339 337 336 337 338 339 340 341 341 341 342 345 347 348 350 351 350 349 349 349 348 348 348 348 349 349 349 350 351 351 350 350 350 349 349 350 350 349 349 349 349 350 350 349 350 349 348 347 346 345 345 345 345 344 343 343 342 341 339 339 339 340 342 344 344 345 347 349 351 354 356 352 351 353 355
312 313 313 313 314 316 317 317 316 316 318 320 321 322 320 319 324 335 340 339 339 340 340 337 335 335 335 336 337 339 341 341 341 343 347 348 350 351 349 349 349 348 348 348 347 348 348 348 349 349 350 351 351 351 351 350 350 350 350 349 349 348 348 349 349 349 349 348 348 346 346 344 344 344 344 344 343 343 343 342 340 339 339 339 340 342 344 344 345 346 347 350 353 352 351 353 354
311 311 311 310 313 315 317 317 316 316 318 320 321 322 318 317 325 334 337 337 337 338 338 336 334 334 334 334 334 336 339 341 341 341 344 348 351 351 349 349 348 348 348 347 347 347 347 347 348 348 349 350 350 350 351 350 350 350 350 349 349 349 348 348 349 349 348 348 347 346 345 344 344 342 342 342 343 342 343 343 341 338 338 339 340 340 343 344 344 345 345 347 349 350 351 353 353
Wind_Speed
10 10 11 13 11 7 4 2 1 1 1 1 0 0 1 1 3 5 7 8 7 5 5 9 11 7 4 3 5 6 6 3 1 0 3 5 12 17 14 16 18 15 15 16 15 15 17 19 20 21 23 22 21 22 22 20 19 18 16 15 14 14 15 15 13 13 14 14 14 12 11 10 10 11 12 12 12 12 12 13 13 14 15 14 14 14 14 14 13 13 13 13 13 13 13 13 12
11 12 13 12 8 4 2 2 1 1 1 1 1 1 1 2 4 7 9 8 6 7 9 11 10 6 5 6 7 7 7 6 2 2 5 10 15 13 16 19 18 16 15 15 15 15 17 19 20 20 20 20 20 20 20 19 17 16 15 14 13 14 15 14 13 13 14 15 14 12 11 10 11 12 13 13 13 13 13 14 13 14 14 14 14 14 14 13 13 13 13 13 13 12 13 13 12
13 13 13 10 5 2 1 1 1 1 1 1 2 1 1 2 4 7 8 7 9 11 12 12 8 6 6 8 4 3 5 4 4 6 7 14 13 11 19 20 18 18 15 14 14 15 16 18 20 18 18 19 18 18 18 17 16 15 15 14 13 14 14 14 13 13 14 15 14 12 11 11 12 13 14 14 14 14 14 14 14 14 14 13 14 14 14 14 13 13 13 13 12 12 13 13 13
14 14 12 7 3 1 1 1 1 0 1 1 2 2 0 2 5 7 8 10 12 14 12 10 6 4 2 7 3 3 5 4 6 8 9 12 11 15 21 20 18 16 14 12 13 14 15 17 19 17 16 17 17 16 16 15 15 15 14 14 13 13 13 13 13 13 14 14 13 12 11 11 13 14 15 14 13 15 15 15 14 14 14 13 14 14 14 14 13 13 13 12 12 12 14 13 13
14 13 8 1 1 1 1 1 0 1 1 1 1 2 2 4 7 8 10 11 12 13 11 6 5 3 4 6 2 2 6 6 8 9 11 11 14 20 22 21 18 14 13 12 12 13 14 16 16 15 15 15 15 15 14 14 13 14 14 14 13 13 13 13 13 13 14 14 13 12 11 12 13 13 14 14 13 14 15 14 14 14 14 14 14 14 14 13 13 13 12 12 12 13 13 14 13
12 9 3 3 1 0 1 1 1 2 1 1 1 2 4 6 8 10 11 10 9 10 7 5 7 7 5 6 4 4 5 5 9 10 11 13 18 21 21 22 18 15 14 13 13 13 13 14 14 14 14 14 14 13 13 13 12 13 15 14 13 12 12 12 13 13 13 13 13 12 12 13 13 13 14 14 13 13 14 13 13 14 14 14 14 15 14 13 13 13 13 12 14 13 13 14 13
10 5 2 3 1 1 2 1 2 1 1 0 0 3 6 8 10 12 13 10 8 6 4 6 9 9 6 4 4 5 3 3 9 11 11 16 20 21 21 21 18 16 15 14 14 13 14 14 13 14 13 13 13 12 12 12 12 14 14 13 12 12 12 12 13 13 13 13 13 12 12 13 13 13 13 14 13 12 13 13 13 14 14 14 14 15 13 12 13 13 13 13 14 14 14 15 14
6 3 0 1 1 1 2 1 2 1 1 1 2 5 8 10 10 12 13 10 8 7 6 8 8 7 6 3 4 5 4 5 9 12 15 19 20 19 21 20 18 16 15 15 14 14 15 14 14 13 13 13 12 11 11 12 12 13 12 11 11 11 12 12 12 12 12 13 13 13 13 14 13 12 13 13 13 12 12 13 13 13 13 14 15 14 13 13 14 13 13 14 15 14 15 15 14
3 1 0 1 1 1 2 1 1 1 1 2 4 6 9 10 11 12 13 10 9 9 9 8 4 4 7 6 6 4 5 9 12 16 18 20 20 19 19 18 17 16 16 15 14 15 14 14 14 13 12 12 11 10 10 11 11 11 11 10 10 11 11 11 12 12 12 12 13 13 13 14 14 13 13 13 13 12 13 13 12 13 14 14 14 13 13 14 14 14 14 14 14 14 15 15 15
2 1 0 1 1 1 1 0 1 1 2 4 5 7 9 10 10 11 12 12 11 10 8 6 5 7 9 7 6 4 7 12 16 19 19 20 20 18 17 17 17 17 16 16 15 15 14 14 14 13 12 11 10 10 10 10 10 10 10 10 10 10 10 10 11 11 11 11 12 13 13 13 14 14 13 13 13 13 13 13 12 12 13 14 14 13 14 15 14 14 14 14 14 13 13 15 16
1 1 0 1 1 1 0 1 2 2 4 5 6 6 8 9 10 10 11 12 11 9 9 6 8 11 10 7 4 5 10 15 18 20 20 20 19 18 17 16 17 16 16 15 14 14 14 14 13 12 11 10 9 9 9 9 9 10 10 10 10 9 9 10 11 11 11 12 12 13 13 13 13 13 13 13 13 13 13 12 12 12 13 13 13 12 14 14 13 14 14 15 15 13 12 14 15
1 1 1 1 1 0 0 1 2 4 4 5 6 5 6 8 9 11 12 12 12 10 7 5 8 9 8 6 4 8 13 15 17 20 20 19 18 18 16 16 17 16 15 15 14 13 13 13 13 12 11 9 9 9 9 8 9 10 10 9 9 9 9 10 10 10 11 12 12 12 12 12 12 13 13 13 13 12 12 12 12 12 12 13 12 11 13 13 12 13 14 16 15 12 12 13 15
1 1 1 1 1 2 1 1 2 3 4 3 6 5 5 7 8 10 11 11 12 10 6 5 9 6 6 6 5 9 13 16 18 19 19 18 18 17 16 16 16 15 15 15 14 12 12 13 12 11 10 9 9 9 9 8 9 9 9 9 9 9 9 10 10 10 10 11 12 11 11 11 12 12 12 13 13 12 11 12 12 11 11 12 12 11 12 12 12 12 13 14 14 12 13 13 14
1 1 2 1 1 2 1 1 1 2 3 3 6 6 5 5 5 8 10 11 10 8 7 8 10 7 7 7 6 8 12 18 19 19 19 17 18 17 16 15 15 15 14 14 13 12 12 12 11 11 10 9 9 10 9 8 8 9 9 9 9 9 9 10 10 10 10 10 11 11 11 11 11 11 11 12 12 12 11 11 11 10 10 11 12 12 11 11 11 11 11 12 14 14 13 14 15
1 1 2 1 2 1 0 1 0 1 3 4 6 6 5 4 3 7 8 9 7 7 9 8 6 5 7 9 7 10 15 21 21 19 19 17 17 17 16 15 14 14 13 13 12 12 11 11 10 9 9 9 10 10 9 9 8 8 9 8 9 10 10 10 10 10 10 10 10 10 10 10 11 11 11 11 11 11 11 11 10 10 10 11 11 11 12 10 9 10 11 13 14 14 13 14 15
1 1 2 1 2 1 1 1 2 2 3 5 7 6 6 5 3 5 3 4 8 9 8 6 4 1 8 9 9 15 20 23 21 19 19 18 18 16 16 14 13 13 13 12 11 11 11 10 9 9 9 9 9 9 9 9 8 8 9 9 9 10 11 11 11 11 11 9 9 10 10 10 10 10 10 11 11 10 11 11 10 10 10 11 12 11 12 10 8 10 12 12 12 13 13 13 15
1 1 2 1 1 1 1 2 2 2 4 6 8 7 7 7 3 4 3 5 10 9 5 6 3 3 8 10 14 21 23 23 21 20 20 18 17 16 15 13 13 13 12 12 11 10 10 9 9 9 9 9 9 9 9 9 8 8 9 9 9 10 11 12 10 11 11 10 9 10 10 10 9 9 10 10 10 10 10 10 10 11 11 11 12 12 12 8 7 11 12 12 12 12 13 13 14
1 1 1 1 1 2 2 0 2 3 5 8 9 7 7 9 7 5 7 9 10 8 7 8 8 8 11 17 21 24 23 22 21 21 20 18 17 16 15 14 13 12 12 11 10 10 9 9 10 9 9 9 9 8 9 9 9 9 9 9 9 11 12 11 10 10 10 10 9 10 10 10 9 9 9 9 10 10 10 10 10 10 10 10 11 14 11 6 7 11 11 12 12 12 12 12 12
2 1 1 0 1 2 3 3 2 3 5 9 10 8 6 9 9 6 8 11 10 8 8 10 12 12 15 21 24 23 23 22 21 21 20 18 17 16 16 15 14 13 12 11 10 10 10 10 10 9 9 9 9 8 9 9 9 9 9 9 9 10 11 11 11 9 8 9 10 10 10 9 9 9 10 10 10 11 10 11 10 9 9 10 12 13 9 5 7 10 11 12 12 11 11 10 10
3 2 1 1 1 3 4 4 3 2 7 11 9 7 6 8 8 6 9 12 10 9 10 11 12 14 16 20 24 23 23 22 21 20 19 18 17 16 16 16 16 15 13 11 11 11 10 10 10 10 9 10 9 8 8 8 9 9 9 9 9 10 11 11 11 9 7 8 9 10 10 9 9 10 10 10 10 10 10 10 11 9 9 9 11 11 6 5 8 9 10 11 11 11 10 9 8
1 3 3 1 1 4 4 3 1 3 8 10 8 8 6 7 6 5 11 11 8 9 11 13 15 17 19 20 23 24 23 22 21 19 18 18 17 15 14 15 15 14 13 11 11 11 11 10 10 10 10 10 9 9 8 8 9 9 8 8 9 9 10 11 11 9 7 7 9 9 9 9 9 9 10 10 10 10 9 9 9 9 8 8 8 7 5 6 8 9 9 9 11 10 10 9 7
2 5 6 5 5 6 4 2 3 5 8 10 9 9 7 7 5 7 12 8 5 8 10 14 17 19 21 22 23 23 22 22 21 19 18 18 17 15 14 14 14 14 13 11 11 11 12 11 10 10 9 10 9 9 8 8 9 8 8 8 9 9 9 10 9 9 8 8 9 8 8 9 9 9 8 9 9 8 8 8 8 8 7 6 6 5 5 6 7 8 8 8 9 9 10 9 8
4 5 6 8 7 7 5 1 4 7 9 10 9 7 8 8 6 8 10 3 3 9 11 15 17 20 22 23 22 21 20 19 20 19 18 18 17 15 15 14 14 14 12 12 12 11 12 11 10 10 9 9 9 8 8 8 8 8 8 8 8 8 8 8 8 8 8 9 9 9 8 9 9 9 8 7 7 7 7 7 7 6 5 5 5 4 5 6 6 7 6 7 7 8 9 9 9
6 5 5 7 6 8 7 4 5 7 10 9 7 7 9 10 6 8 8 3 7 11 13 15 17 21 22 20 19 19 19 19 19 18 16 16 16 15 14 13 13 13 13 13 13 12 12 11 11 11 10 10 9 9 8 8 8 8 8 8 7 8 8 8 8 8 8 8 9 8 8 8 8 8 7 7 7 7 6 6 5 5 5 4 4 4 5 5 6 5 5 5 6 7 7 8 8
8 7 6 6 6 7 6 5 7 8 8 8 8 8 8 7 4 7 8 6 10 13 14 15 17 19 18 17 18 17 17 18 18 17 15 14 15 15 13 12 13 13 14 14 13 13 12 12 12 11 11 10 10 9 9 8 8 8 8 7 7 7 7 7 8 8 8 7 7 7 7 7 7 7 7 6 6 6 6 5 4 4 4 4 4 4 4 4 5 4 4 4 4 5 6 7 7
5 7 7 8 10 8 5 6 9 9 6 8 10 7 5 4 3 6 7 7 11 14 15 16 17 18 16 16 17 17 16 18 19 17 15 14 15 15 14 13 13 13 14 14 14 13 13 12 12 11 11 10 10 9 9 8 8 9 8 7 7 6 7 7 7 7 6 6 6 6 6 6 5 5 5 5 5 4 4 4 4 3 3 3 3 3 3 4 4 4 4 3 3 4 4 5 6
2 7 8 9 9 8 3 7 10 8 7 9 10 6 5 4 2 5 7 9 12 15 15 16 17 17 16 15 15 15 16 17 18 17 16 15 15 16 15 14 14 14 15 15 14 14 13 13 12 11 11 10 10 9 9 9 9 9 8 7 6 6 7 7 6 6 6 5 5 5 4 4 4 4 4 3 3 3 3 3 2 2 2 2 3 3 3 3 4 4 4 3 3 3 3 3 4
6 6 7 5 2 3 2 8 11 8 6 8 8 7 5 4 3 4 8 11 13 15 16 16 16 15 16 16 15 13 14 16 17 17 17 18 17 17 17 16 16 16 15 16 14 14 14 14 13 12 11 10 10 9 8 8 8 9 8 7 6 6 7 6 5 5 5 5 4 4 3 3 3 3 3 3 2 2 2 1 1 1 1 2 3 3 3 4 4 3 3 3 3 2 2 2 3
6 4 5 2 1 3 3 7 10 7 6 8 8 6 5 8 6 3 9 12 13 15 15 16 15 14 14 14 13 11 13 16 17 17 17 17 16 17 18 17 17 16 15 15 15 14 14 14 14 13 11 10 10 10 9 8 8 8 8 7 7 6 6 6 5 5 4 4 3 3 2 2 2 2 2 2 2 1 0 0 1 1 1 2 3 4 3 4 4 3 3 3 3 2 1 1 1
4 2 2 3 1 2 4 6 9 6 6 11 9 3 3 10 8 4 10 14 14 15 14 14 14 12 13 13 12 11 13 16 16 16 16 16 15 16 17 16 17 16 14 15 16 15 15 13 13 13 12 11 11 11 10 8 8 8 8 7 7 6 5 5 5 5 4 4 3 2 2 2 2 2 2 1 1 0 1 1 1 1 1 2 3 3 3 3 3 2 2 2 2 1 2 2 1
1 1 1 1 2 2 4 5 9 6 5 10 8 3 1 5 9 7 10 16 15 14 14 14 13 12 12 12 12 12 13 16 16 16 15 15 15 15 16 16 17 16 15 15 16 16 15 14 13 13 13 12 12 11 10 9 8 8 8 7 7 6 6 5 5 5 4 4 3 3 2 2 3 2 2 2 2 1 1 1 0 0 1 2 3 3 3 3 2 2 2 2 1 1 2 2 1
1 2 2 0 1 2 4 5 8 6 5 9 8 3 1 1 8 11 11 15 16 14 14 14 14 14 13 12 13 12 13 15 16 16 15 15 15 15 16 17 18 17 16 16 15 16 15 14 13 13 14 14 12 11 10 9 8 9 8 7 7 7 7 6 5 5 5 4 4 4 3 3 4 3 3 2 2 1 1 1 1 1 1 1 2 2 2 2 2 1 1 2 2 2 2 2 1
1 1 1 1 1 1 4 5 8 6 7 10 9 4 2 3 5 11 11 15 15 13 14 15 15 14 14 12 12 12 12 14 15 16 17 17 16 16 16 17 18 18 17 17 16 16 16 15 14 13 14 15 13 11 10 9 9 9 9 8 8 8 8 7 6 5 5 5 4 4 4 4 4 4 3 3 2 2 2 2 2 2 2 1 1 2 2 2 2 2 1 2 4 3 2 2 1
2 1 1 1 1 0 2 4 7 8 7 9 10 6 1 4 5 10 12 15 15 13 14 15 14 13 13 12 12 12 12 13 14 17 19 18 17 17 17 17 18 18 17 18 17 16 16 15 15 14 15 16 15 13 11 9 9 9 9 11 10 10 9 8 7 6 6 5 5 5 4 4 4 4 4 3 3 3 4 3 3 2 1 1 1 2 2 2 2 2 2 3 4 4 2 1 1
3 2 2 2 1 0 0 2 5 9 7 7 9 9 7 3 6 8 11 13 14 13 13 13 14 14 13 13 12 13 13 13 15 18 20 19 18 17 17 17 18 18 18 18 18 17 16 15 14 14 14 17 17 16 13 10 9 9 10 11 11 10 10 9 8 7 7 6 5 5 4 4 4 3 4 4 4 5 5 4 3 2 1 0 0 2 3 3 2 2 2 3 4 3 2 1 1
5 3 2 2 1 0 1 1 3 9 7 6 9 9 9 5 7 8 10 12 13 12 12 12 12 13 13 13 13 13 14 14 15 18 20 19 18 18 17 17 18 18 18 19 19 19 18 16 15 14 14 17 19 18 16 12 10 10 10 11 10 11 11 10 9 8 7 7 6 5 4 3 4 4 5 5 5 5 5 4 3 2 1 0 0 2 3 3 3 2 3 4 4 3 2 2 2
3 3 3 2 1 0 0 2 0 7 7 6 9 9 9 6 7 9 10 11 12 12 13 12 13 13 13 14 14 15 15 14 15 18 19 19 19 18 18 17 17 17 17 18 20 20 20 19 17 16 15 17 20 19 18 15 13 12 11 11 10 10 11 11 10 9 8 7 6 5 4 4 4 5 6 6 5 6 5 4 3 2 2 1 1 2 2 3 2 2 3 4 5 3 2 2 2
2 1 1 0 1 1 2 3 2 5 6 4 6 8 10 9 7 9 10 12 14 14 15 15 16 15 13 15 16 15 13 12 14 17 18 20 19 19 19 17 18 18 18 19 21 21 22 21 19 18 16 17 21 22 21 19 16 14 11 10 10 8 10 11 9 9 8 7 6 5 5 5 5 6 7 7 6 6 5 4 3 3 2 2 1 1 2 2 2 2 2 3 4 4 3 2 2
2 1 1 1 1 1 1 3 3 5 5 1 3 6 9 9 7 9 12 13 13 15 17 15 16 16 14 15 15 15 14 12 14 15 18 20 20 21 20 18 19 20 19 20 21 21 21 22 21 21 18 17 21 23 23 21 19 18 14 11 10 8 10 11 9 9 9 8 7 6 7 7 6 7 7 7 7 7 6 5 4 3 2 2 1 1 2 2 2 2 2 3 3 3 3 3 2
2 2 3 2 0 1 1 3 5 3 4 2 1 4 7 6 6 9 13 14 12 14 16 14 14 16 16 16 15 14 16 15 15 15 17 20 21 21 21 20 20 19 19 19 20 20 20 22 23 25 23 20 22 24 23 22 20 19 16 14 13 10 11 11 11 11 10 9 8 7 9 9 8 8 8 8 8 7 6 5 4 3 3 2 1 1 2 2 2 2 2 3 3 2 3 3 0
2 3 5 3 2 3 2 2 3 3 4 2 1 3 3 3 4 7 10 12 12 12 14 13 13 14 14 15 15 15 16 15 16 16 17 19 21 22 22 21 21 20 19 20 20 21 21 23 26 28 27 25 24 24 23 22 21 19 16 14 13 12 11 11 10 10 10 10 8 8 9 10 9 10 9 9 8 7 6 5 4 4 3 2 2 1 2 2 2 3 2 3 3 3 3 2 2
3 5 7 6 4 5 3 1 2 2 2 1 2 3 0 1 2 5 7 10 12 12 14 16 15 14 14 14 15 16 16 15 16 16 17 19 22 23 23 22 22 21 21 21 22 23 23 25 28 29 28 27 26 25 24 23 22 20 19 17 15 13 11 11 11 10 10 10 9 9 9 9 10 11 10 9 9 7 6 6 5 4 3 2 1 1 2 2 2 3 3 3 2 2 3 2 2
3 4 7 8 7 6 5 2 2 2 1 1 2 3 0 1 1 2 5 10 13 12 14 16 14 14 15 14 15 15 15 15 15 16 17 19 22 23 23 24 23 22 22 22 22 22 23 26 30 30 30 29 27 27 26 24 24 22 22 20 17 16 13 13 15 13 12 11 10 10 10 9 11 11 11 10 9 8 7 6 6 5 4 3 2 1 1 2 2 3 4 4 2 1 2 1 1
2 3 6 9 10 9 6 3 2 1 1 0 1 2 2 1 2 3 2 8 10 10 12 13 12 14 15 15 15 16 16 16 15 16 17 19 23 24 24 25 25 24 23 22 22 22 23 27 31 31 30 30 29 28 27 26 26 26 25 22 19 18 15 14 17 15 13 12 11 11 11 11 11 11 12 11 11 10 8 7 6 6 5 4 3 2 2 3 3 4 5 5 4 3 2 1 1
2 4 5 7 7 7 5 3 2 1 2 1 2 2 2 1 3 6 3 1 3 5 8 11 13 13 15 15 16 17 17 17 16 17 18 20 24 26 26 26 26 26 24 23 23 23 25 27 31 31 31 31 30 30 29 28 28 28 27 23 21 20 18 16 17 15 14 14 12 12 12 12 12 11 12 11 11 11 10 9 7 6 6 5 4 3 4 4 4 4 5 5 6 5 4 2 1
2 5 4 4 4 3 3 2 2 2 2 3 4 5 3 1 5 8 6 6 9 8 7 9 13 14 14 15 16 17 16 16 17 17 18 22 25 26 27 27 27 27 25 25 25 25 25 26 29 31 32 31 31 31 30 30 30 29 28 26 23 22 21 19 17 15 15 15 14 13 13 13 13 12 12 11 12 11 10 10 9 8 7 6 5 5 5 5 5 5 5 6 6 6 6 4 3
4 7 5 4 4 3 2 1 2 2 3 3 3 6 5 0 5 7 7 8 11 9 8 8 8 13 15 15 14 15 14 14 15 17 18 22 25 25 26 26 27 27 25 25 26 25 24 25 27 31 32 32 31 31 32 31 31 31 30 30 26 24 23 21 19 17 17 16 15 15 14 14 13 13 12 11 12 11 10 10 10 9 8 7 7 6 5 5 5 5 5 6 6 6 6 5 4
2 4 4 4 3 3 2 2 2 4 3 1 1 6 6 2 3 6 7 10 12 10 9 11 10 9 12 14 14 14 14 14 14 14 16 18 20 22 25 25 26 26 25 25 25 24 24 24 27 29 30 32 32 31 32 32 32 32 32 32 29 26 25 24 22 21 19 18 17 16 16 15 15 14 13 13 13 12 10 10 9 9 9 9 8 7 6 5 5 5 5 6 6 6 6 5 5
4 4 4 5 3 4 4 3 3 4 2 1 1 5 4 2 4 6 9 11 13 11 10 10 12 12 9 10 14 15 13 14 15 14 14 14 16 19 23 25 25 25 25 26 26 25 24 25 28 28 29 32 33 32 32 33 34 34 34 34 32 29 27 26 25 24 22 21 19 18 17 17 16 16 15 14 13 12 12 11 10 9 9 9 9 8 7 6 6 5 6 5 5 5 5 5 5
5 5 5 5 4 5 6 4 2 3 2 1 2 4 4 5 5 6 9 11 11 10 11 10 10 11 11 10 9 14 14 14 15 14 15 14 15 19 23 24 25 25 27 28 27 26 25 26 29 30 30 32 33 32 33 33 35 36 36 36 34 31 29 28 27 26 24 23 22 21 20 18 17 16 16 15 13 12 12 12 12 11 10 10 10 10 8 8 7 6 6 5 5 5 5 5 6
2 1 2 3 4 4 5 4 4 5 4 3 2 3 2 6 4 5 6 9 11 10 12 12 12 12 11 11 7 8 14 15 14 14 15 16 18 22 23 23 24 26 28 29 28 27 27 27 31 33 31 32 33 33 33 34 35 36 36 36 35 34 32 30 29 28 26 25 24 23 22 21 19 17 16 15 13 13 12 11 12 12 13 12 11 11 10 9 8 8 7 7 6 6 5 5 6
2 1 2 2 1 1 1 2 2 3 4 3 3 2 3 6 6 7 7 8 12 13 15 16 16 15 12 12 12 8 6 10 13 15 16 17 20 23 23 23 25 26 28 29 28 28 28 28 32 36 34 34 35 34 34 34 35 35 36 36 36 35 34 32 31 30 28 27 26 25 24 23 21 18 16 15 14 14 13 12 12 12 12 13 13 12 11 10 10 9 9 9 8 7 6 5 6
2 2 2 1 2 2 1 2 1 1 5 3 2 3 4 4 3 10 11 10 14 16 18 18 17 17 15 13 12 12 11 9 9 12 16 17 20 23 24 24 25 26 28 29 29 30 32 33 33 35 34 33 35 36 36 35 35 34 36 36 36 36 35 34 33 31 29 28 28 26 25 25 24 21 18 16 15 15 14 13 12 12 12 12 13 13 12 12 11 10 10 10 10 9 7 6 6
1 2 2 2 0 1 1 2 3 4 7 3 3 4 5 1 1 9 14 14 16 16 17 17 18 18 17 15 13 13 13 12 11 11 13 16 19 22 25 26 27 29 29 30 31 32 35 37 36 36 35 33 35 36 34 34 35 34 34 36 37 37 36 35 34 33 31 29 28 27 26 26 26 24 21 18 17 16 16 15 14 13 12 12 12 13 13 13 12 11 11 11 11 11 10 8 7
3 2 2 1 2 2 1 2 4 6 7 4 4 5 6 5 3 9 14 14 15 14 15 16 18 19 17 16 17 16 15 12 12 11 10 13 17 21 24 25 26 28 28 29 30 31 32 34 34 35 36 36 37 36 34 36 36 34 33 35 37 37 37 36 34 34 32 30 29 29 28 28 27 26 24 21 19 18 18 17 15 14 14 13 13 13 13 13 13 13 12 11 12 13 12 10 9
2 2 1 1 1 1 1 0 1 3 5 5 4 3 4 5 5 9 11 12 12 12 13 14 16 16 15 15 16 16 15 13 12 11 10 11 15 20 23 24 25 26 26 27 28 29 29 31 31 31 31 32 34 33 35 38 37 34 33 35 37 37 37 36 35 34 33 32 31 30 29 28 28 27 26 24 22 21 20 19 18 17 16 15 14 14 14 14 14 14 14 12 11 13 14 13 11
2 1 3 3 2 1 1 2 2 1 3 4 5 4 4 4 4 7 10 10 10 11 11 11 12 14 14 14 14 15 15 15 13 13 9 8 14 18 19 21 23 24 24 26 27 29 29 28 29 30 29 29 31 31 32 35 34 33 34 36 36 37 37 36 35 34 34 33 33 32 30 30 29 28 27 27 25 24 23 22 21 20 19 17 16 15 15 15 16 15 15 14 14 14 14 14 14
6 4 3 3 2 1 3 3 1 1 1 1 3 5 5 4 4 6 8 9 9 10 10 10 11 13 13 14 15 15 16 16 16 15 13 7 6 14 19 20 20 20 22 25 26 27 28 29 28 29 29 29 31 30 30 33 34 33 35 35 33 34 36 35 33 32 33 34 34 33 32 31 30 29 28 28 28 27 25 24 23 22 21 20 18 17 16 17 17 16 16 16 16 16 15 15 15
Wind_Direction
141 148 154 151 142 145 156 194 220 162 241 271 264 175 101 128 140 136 134 141 140 141 125 125 134 125 115 120 119 83 50 97 72 341 100 96 133 137 138 142 144 137 131 131 125 121 120 122 122 122 124 125 125 125 127 126 124 123 123 126 129 124 121 122 122 120 116 111 108 109 110 112 113 114 114 111 107 104 106 106 102 103 105 103 101 103 104 104 103 102 101 100 99 99 101 102 104
152 150 150 145 144 172 166 207 255 125 233 304 80 55 84 148 164 145 144 151 138 137 135 131 127 93 92 103 115 107 60 41 30 69 90 120 128 131 142 145 143 138 134 131 126 122 123 124 122 122 123 124 125 125 124 123 121 121 122 125 128 123 121 123 122 120 116 111 108 107 106 105 102 105 108 106 106 104 101 100 100 99 101 101 100 99 99 100 99 99 98 97 98 100 102 102 105
153 146 146 144 152 238 188 215 255 134 266 11 75 80 103 157 148 140 142 135 126 135 134 128 109 74 114 122 103 103 73 50 109 112 119 135 132 139 148 147 145 140 135 130 126 124 125 124 122 123 125 124 123 122 121 122 122 123 125 126 126 123 122 123 122 119 113 109 106 103 101 100 97 100 104 104 104 104 102 101 100 97 97 97 96 93 93 93 92 94 92 93 95 97 98 99 102
153 150 149 155 173 234 195 223 272 179 306 8 63 89 99 124 121 128 128 126 132 139 135 130 107 48 96 118 81 72 91 94 127 126 137 145 139 144 149 150 146 140 135 130 127 123 124 126 123 124 125 123 122 121 121 123 124 126 126 126 126 124 124 123 120 115 108 106 104 101 97 94 95 98 101 103 103 102 100 99 99 98 99 96 92 91 91 91 90 92 93 95 95 95 97 100 104
153 155 153 202 218 179 228 271 43 226 327 17 26 86 114 121 125 128 124 128 141 143 136 131 113 92 65 77 38 84 103 111 139 143 143 144 137 142 149 152 147 139 136 132 128 122 125 125 122 125 125 124 124 123 123 125 126 127 128 127 126 125 125 122 118 111 107 105 102 100 95 90 91 94 96 98 96 94 94 95 99 99 98 95 93 92 90 88 87 88 90 91 90 92 99 104 105
151 158 183 281 250 322 260 254 221 238 339 331 308 100 127 133 132 130 125 124 135 137 124 112 118 122 98 66 42 83 104 115 147 157 147 143 141 143 148 151 147 141 139 136 131 125 129 127 123 127 127 127 126 124 124 122 123 128 129 126 125 126 125 121 115 109 106 104 102 100 96 93 92 92 94 94 90 88 92 95 96 94 93 92 90 89 87 86 85 87 90 90 89 93 100 104 104
152 162 211 250 205 248 245 256 262 276 36 305 42 117 135 136 136 135 133 130 129 128 106 113 123 118 102 95 86 76 72 115 146 157 148 142 143 144 148 150 145 142 142 139 135 133 135 132 130 131 129 130 127 125 122 119 122 125 124 123 126 125 120 115 111 107 104 103 101 99 96 94 92 92 92 92 91 88 92 93 91 89 90 89 86 84 83 84 85 87 90 90 90 94 97 98 102
170 180 112 245 223 215 245 276 287 330 83 99 87 129 139 140 144 142 144 145 144 148 134 134 134 110 94 113 112 72 68 115 136 142 142 141 142 145 148 149 143 143 145 143 139 137 140 137 136 134 132 133 128 125 122 121 121 120 121 122 123 117 112 109 107 105 101 101 99 97 95 95 93 91 88 88 92 91 91 90 88 88 87 87 86 83 80 79 80 80 81 82 85 92 96 98 102
199 219 75 250 255 234 253 283 332 343 88 111 115 131 137 145 148 146 152 148 147 152 143 147 149 111 110 106 104 90 96 117 128 135 141 141 142 145 147 147 145 145 146 144 143 141 143 141 139 137 136 134 128 125 122 121 119 119 120 118 115 111 107 104 103 100 98 98 97 97 97 97 96 93 91 91 92 92 90 89 88 87 87 88 87 86 83 80 79 79 77 77 80 85 92 98 101
191 217 296 264 252 241 237 72 93 103 97 105 112 128 140 147 147 149 153 147 149 149 135 123 102 119 127 108 97 96 116 127 133 139 144 144 143 144 145 146 145 146 147 146 147 146 146 143 141 140 138 134 129 126 123 120 118 118 115 111 110 108 105 101 100 99 99 96 94 96 94 93 93 93 95 95 94 94 92 92 90 86 87 88 88 84 82 82 83 83 81 81 81 81 86 94 101
194 183 273 285 247 219 166 83 110 108 112 114 107 120 142 144 142 146 146 147 152 143 138 122 107 122 121 103 93 100 124 135 141 145 147 145 144 143 143 146 147 148 149 150 151 149 148 145 143 142 139 135 130 127 124 120 116 114 111 110 109 107 104 100 98 101 104 98 91 91 91 90 89 88 88 90 92 93 91 91 89 87 86 86 87 83 81 84 83 83 84 84 84 85 85 88 95
299 148 245 289 340 332 61 85 102 103 118 121 118 121 142 144 141 146 145 149 153 146 152 151 134 132 113 105 108 120 135 142 146 148 147 145 143 143 144 146 149 150 152 154 153 152 150 147 145 145 141 134 131 126 121 118 115 114 113 112 110 108 103 101 101 104 105 99 93 88 88 90 89 86 85 88 90 91 92 92 91 89 89 88 88 84 85 87 83 79 82 84 85 88 89 86 90
303 30 330 338 348 312 331 59 76 108 121 109 126 131 144 143 137 147 143 143 154 154 150 147 145 130 103 113 122 134 145 148 149 149 147 146 145 144 144 147 150 152 154 155 154 153 152 148 145 144 141 135 132 127 121 118 115 116 115 113 112 108 105 106 106 105 107 103 98 91 89 91 90 87 87 91 90 89 90 91 92 93 96 96 92 88 85 85 82 80 84 91 94 93 91 89 88
289 23 341 336 334 303 319 86 44 110 119 113 128 135 143 126 123 143 139 141 152 148 130 136 142 115 108 129 141 154 153 152 152 149 148 146 146 145 144 147 150 152 154 155 155 153 152 148 143 143 142 140 138 129 122 118 115 117 115 115 114 110 108 108 105 105 107 106 102 97 94 92 92 89 87 89 88 88 87 85 89 96 104 105 100 98 95 87 86 91 93 95 96 95 92 90 86
268 346 333 321 350 338 227 112 132 134 125 141 141 141 130 92 119 141 140 142 132 126 124 136 154 125 145 163 166 163 156 154 152 148 148 145 145 145 144 146 149 153 154 154 154 152 151 147 143 145 144 142 138 128 123 120 119 123 119 118 115 109 109 108 107 106 107 107 107 105 101 95 94 93 91 89 88 90 89 85 87 93 102 105 103 104 101 94 94 98 94 89 90 92 91 94 92
251 299 325 347 18 51 144 146 158 158 142 147 149 151 125 98 125 126 118 122 121 138 137 147 176 136 162 168 157 154 153 152 151 148 146 144 145 143 143 147 149 153 155 156 154 152 151 148 147 148 146 142 136 131 130 128 126 126 122 121 113 106 105 106 107 106 105 105 106 106 104 98 95 97 96 94 93 92 91 88 87 91 94 97 101 103 96 93 101 101 97 95 95 95 93 94 97
249 262 319 22 36 37 97 168 168 134 137 148 157 169 139 125 118 93 109 123 129 143 132 129 121 84 147 147 140 147 150 151 150 149 148 146 147 146 147 151 153 155 157 159 157 155 153 152 154 151 148 145 139 137 134 130 129 126 122 118 111 107 104 104 106 104 103 102 103 106 105 101 98 99 98 98 97 95 94 90 86 88 90 92 98 95 89 96 110 102 99 98 96 96 95 94 98
240 205 325 30 47 38 29 254 164 142 153 160 166 174 155 143 138 127 133 129 129 130 114 106 86 86 119 127 136 145 149 152 153 154 154 153 154 154 155 158 160 159 159 161 162 161 160 159 160 154 149 148 145 141 135 133 133 129 123 118 111 109 108 106 106 102 102 104 105 107 103 100 98 97 98 101 101 99 99 96 87 83 86 90 91 83 80 96 102 95 93 89 86 87 89 90 94
233 218 355 5 321 337 320 293 219 180 157 157 168 171 165 150 143 155 152 140 137 129 122 112 100 107 121 130 139 148 153 156 159 160 159 159 161 161 160 162 164 164 161 163 167 167 165 163 163 156 153 153 147 142 139 136 136 132 125 120 115 112 111 109 104 100 102 106 109 108 102 100 100 100 102 102 102 102 101 100 97 90 88 85 82 79 81 90 84 87 87 81 77 75 79 83 87
227 224 268 173 265 308 322 300 240 178 144 152 166 168 169 155 146 166 155 148 152 146 143 134 126 134 139 141 146 153 158 161 163 163 161 161 164 165 164 166 167 168 166 164 168 170 168 165 165 161 158 156 148 145 142 138 139 134 128 126 121 119 118 114 108 104 102 105 110 108 104 104 103 100 101 100 99 100 98 100 99 93 88 81 78 82 89 82 74 83 83 76 70 67 71 76 81
209 214 258 186 305 317 350 344 198 151 152 152 157 163 166 157 153 166 152 153 172 169 161 150 145 149 150 151 153 158 162 164 166 165 163 163 166 168 167 168 169 167 164 164 168 170 170 169 168 164 161 158 152 149 146 143 142 136 133 133 128 126 124 121 116 114 112 107 107 106 108 109 105 104 105 105 102 101 100 98 96 89 86 83 85 90 90 79 76 82 79 72 67 63 65 69 75
243 238 261 264 280 298 329 347 155 141 150 152 159 167 155 152 163 173 165 167 181 170 163 152 150 154 156 157 157 161 165 166 169 168 166 166 167 168 166 165 167 165 162 165 168 170 172 172 169 165 164 161 157 153 152 149 146 142 139 136 133 131 128 127 122 121 123 119 115 114 117 115 110 110 109 108 105 102 98 93 91 93 97 100 97 91 84 80 77 79 75 70 66 61 60 60 63
250 247 257 261 264 270 288 289 167 145 153 162 168 157 140 159 174 177 178 168 132 149 153 151 150 154 156 158 159 162 167 169 171 171 170 167 167 168 167 164 165 164 164 168 168 169 172 174 171 168 166 164 162 158 156 155 152 150 146 141 138 134 132 131 126 126 128 126 125 124 124 121 115 112 107 103 102 99 93 91 96 104 114 117 107 91 79 79 77 75 74 71 67 63 58 53 50
245 262 271 274 267 256 261 246 189 164 165 164 151 146 160 177 169 170 181 125 124 142 145 147 146 150 154 158 163 164 166 169 171 172 170 167 169 169 168 166 165 163 166 171 170 169 173 177 176 172 171 169 167 164 160 161 159 156 151 147 144 140 137 135 132 130 129 128 128 129 129 125 120 117 115 112 112 111 108 107 112 117 121 118 109 92 78 77 75 72 71 71 70 64 57 52 48
230 259 279 286 284 269 257 226 190 168 163 151 144 161 177 175 140 164 176 135 137 143 142 145 144 149 157 161 165 166 167 169 170 171 169 166 167 168 169 170 167 167 172 174 172 171 174 178 178 176 175 174 171 168 166 166 164 161 159 156 152 148 144 141 138 133 132 132 130 132 131 127 125 126 130 131 128 126 125 122 120 119 120 116 105 89 77 75 72 69 69 72 72 66 57 51 49
217 256 282 289 295 298 264 203 180 165 156 154 157 163 162 142 132 171 171 143 142 144 143 147 150 154 160 163 166 168 169 170 171 172 170 165 166 170 173 173 172 176 176 176 174 173 174 177 179 180 178 176 174 172 171 171 169 167 166 165 160 157 155 151 146 140 138 137 134 135 134 130 131 134 136 135 131 127 127 125 122 117 112 111 98 83 80 73 70 69 68 74 76 72 60 49 49
285 271 285 285 301 321 265 186 168 156 152 166 164 153 147 140 192 194 162 152 146 144 148 151 156 161 164 166 168 171 172 171 171 171 169 166 171 177 178 178 178 179 179 178 177 175 176 178 180 182 180 179 176 174 177 176 175 175 174 171 167 168 168 163 156 153 149 143 141 140 135 132 130 133 133 127 125 121 126 129 117 106 93 98 92 80 83 76 71 72 77 90 88 84 69 49 48
303 287 292 276 330 2 208 165 159 150 150 175 157 137 156 163 219 213 157 157 154 149 153 159 163 165 167 169 169 172 174 172 172 174 175 174 177 181 181 183 181 179 183 182 179 178 179 180 182 182 181 183 180 177 180 179 178 180 179 178 177 178 176 174 171 168 162 156 151 147 146 144 129 130 134 127 121 107 118 134 82 79 69 78 81 74 77 78 74 70 85 111 112 104 91 61 48
289 284 300 274 101 89 139 150 160 158 154 169 150 135 195 201 204 181 157 159 158 156 157 163 167 167 169 171 171 174 176 175 177 183 183 180 179 182 183 184 181 179 182 183 182 183 181 181 182 182 183 186 184 180 181 180 180 182 182 186 188 185 184 184 185 184 182 176 170 165 170 182 160 142 144 143 136 109 99 322 338 1 47 73 81 76 72 72 73 65 80 115 125 116 116 114 69
271 250 298 289 282 116 127 149 163 161 151 166 174 180 207 201 194 154 159 164 160 162 163 167 169 169 171 172 175 178 181 181 184 188 185 180 179 183 185 184 182 179 178 182 185 185 184 183 183 183 186 188 186 185 184 183 181 183 186 191 194 193 195 196 198 202 203 201 204 201 197 219 213 186 186 190 184 257 287 285 299 327 53 91 90 83 70 64 68 65 77 105 124 134 139 144 115
290 251 230 302 304 110 123 158 167 161 155 174 200 247 60 182 186 167 164 167 165 168 168 171 171 171 174 174 179 182 186 189 190 191 186 182 180 183 187 185 184 182 178 182 186 187 186 186 185 184 186 189 189 189 187 186 185 186 188 193 197 201 206 209 212 217 223 224 230 237 235 250 249 234 233 243 257 271 274 268 218 207 137 105 87 79 68 66 70 69 82 103 118 145 151 151 132
356 254 188 179 309 113 127 165 182 171 160 186 207 243 26 97 176 169 169 171 171 172 171 174 174 175 177 176 182 187 189 192 193 193 189 186 184 185 190 189 187 185 182 182 183 186 189 191 189 186 186 188 190 191 190 188 188 191 193 195 201 207 214 221 225 229 241 247 255 263 262 267 263 251 242 244 253 257 236 205 179 188 162 115 89 76 69 72 77 72 92 126 132 150 157 147 132
76 261 179 68 289 128 131 161 193 174 148 187 214 250 28 43 167 166 168 176 175 175 174 176 178 177 179 179 184 189 190 191 194 196 192 189 190 190 192 192 190 187 185 184 182 185 190 193 191 188 189 191 191 191 191 191 191 194 198 202 207 213 221 230 237 240 250 259 268 274 277 276 262 241 229 224 215 208 185 169 172 182 163 136 114 87 81 82 86 91 110 140 146 153 155 129 107
144 196 125 68 303 301 137 153 185 179 163 189 212 240 263 69 145 165 172 180 178 181 179 178 181 181 182 183 185 189 190 194 197 197 193 191 192 192 194 195 192 188 187 187 186 186 188 192 193 191 194 198 198 196 193 193 194 195 203 212 215 217 223 232 239 245 252 261 272 276 280 280 261 227 210 201 186 181 171 167 171 175 164 140 123 98 88 81 86 100 108 133 143 144 137 109 85
132 137 138 118 101 43 87 109 165 183 191 195 200 227 236 148 135 165 181 186 186 187 183 181 184 184 185 186 188 190 192 196 197 195 193 191 192 193 195 195 194 191 188 188 188 189 188 190 194 194 196 200 204 205 202 195 194 196 204 213 217 221 225 229 234 242 250 258 272 279 281 276 258 224 203 192 182 178 172 174 174 171 180 178 121 96 88 84 88 96 101 115 122 121 113 82 49
99 95 98 85 73 72 317 5 171 187 198 209 206 226 239 202 161 174 183 189 194 192 186 185 186 187 188 190 192 192 194 198 196 194 192 191 192 193 194 195 195 193 189 187 189 192 192 190 193 195 197 201 206 208 205 198 194 197 201 206 212 219 223 227 232 239 247 257 270 278 278 266 244 215 202 195 185 181 176 176 173 175 191 189 55 69 86 97 102 98 107 114 108 94 80 55 31
97 106 97 56 331 12 336 337 189 193 205 220 219 234 248 226 185 183 182 186 195 196 193 191 189 189 191 193 195 195 197 198 193 192 192 191 192 192 193 194 194 193 189 187 188 193 196 194 194 195 195 202 206 206 204 200 194 194 197 201 205 211 218 225 232 236 243 255 265 270 262 247 228 209 200 197 191 188 180 174 179 186 191 162 115 75 83 102 111 109 113 114 105 90 68 48 25
133 158 133 50 253 352 13 346 358 197 213 224 215 239 252 241 211 185 179 187 197 200 199 196 192 192 192 195 197 197 197 194 190 190 191 191 192 192 193 193 193 193 190 190 191 193 197 198 197 196 195 201 207 208 207 205 202 199 197 199 200 202 215 222 230 237 242 254 262 256 242 230 218 207 200 198 195 192 184 178 190 197 193 170 129 99 99 106 111 110 104 98 91 83 62 20 351
155 186 227 197 236 309 35 13 27 178 211 251 194 234 254 248 223 190 185 195 202 204 203 201 195 192 195 196 197 196 194 192 191 191 191 192 193 192 193 193 195 196 193 194 194 192 194 196 197 199 197 199 207 211 211 211 211 209 205 206 204 203 216 221 230 238 244 255 258 243 229 219 210 205 201 201 197 195 191 187 197 201 197 191 133 92 108 114 112 111 107 90 79 71 48 4 319
187 211 231 207 170 255 159 52 44 164 223 296 177 246 264 254 224 200 201 204 207 207 206 205 197 196 198 196 196 196 194 194 193 194 193 193 194 193 194 194 196 197 196 195 194 192 194 196 200 204 204 205 209 213 213 214 216 214 214 217 216 216 223 228 237 244 247 252 251 235 221 212 207 206 204 202 199 196 193 192 197 197 195 196 191 108 113 125 128 124 112 92 78 72 55 23 83
206 223 239 229 199 240 237 36 14 222 231 259 245 266 271 254 228 213 207 208 212 208 203 204 201 200 199 196 198 198 197 197 195 196 195 194 193 194 195 195 194 196 196 195 194 195 197 199 204 208 209 210 212 214 214 215 216 214 212 214 217 220 224 228 232 236 241 244 242 229 217 211 208 208 207 205 201 197 193 196 200 197 194 192 192 168 136 144 150 145 133 110 84 75 68 58 121
227 218 224 224 213 228 235 338 322 263 189 166 261 264 148 86 246 220 193 200 213 205 199 205 202 198 198 198 199 199 199 198 197 198 197 195 194 194 195 195 195 197 198 197 196 198 200 203 207 209 210 211 212 214 214 214 214 211 208 204 203 207 209 214 216 217 226 232 232 226 216 211 211 211 211 207 203 201 198 201 208 207 203 201 203 186 160 160 163 163 158 144 116 86 77 74 129
240 206 202 204 205 217 227 238 272 271 97 82 279 272 289 63 345 242 195 199 209 206 205 210 204 198 199 200 200 199 201 199 197 199 198 197 195 194 194 194 196 199 199 199 198 200 201 204 209 209 210 210 210 212 213 213 212 212 212 208 204 203 200 209 218 220 224 228 230 227 220 214 214 215 215 214 210 210 208 208 213 216 216 218 217 197 187 184 176 183 183 176 180 149 99 78 145
219 153 174 187 197 207 209 213 228 298 347 229 225 254 287 308 29 8 243 213 214 214 217 218 213 208 205 204 202 200 201 200 197 198 198 198 197 196 195 195 198 201 200 198 198 199 200 206 211 210 210 210 209 211 212 212 212 213 215 213 213 212 207 212 220 222 225 230 233 230 225 221 219 218 219 220 218 218 219 215 214 217 220 223 220 212 209 205 194 195 195 194 203 204 177 152 186
218 153 162 174 190 194 184 192 186 57 287 231 151 188 253 290 38 26 15 289 285 269 252 236 227 222 214 209 206 203 202 201 199 199 198 198 197 197 197 195 197 200 199 197 198 200 201 206 211 211 211 210 210 211 211 212 214 215 215 215 218 219 216 217 221 224 227 230 234 234 230 227 225 223 222 223 222 223 223 220 216 215 218 223 223 225 219 209 204 203 204 206 211 212 211 216 218
170 152 152 133 139 149 156 189 145 119 242 227 157 188 237 18 37 25 29 18 354 335 308 260 234 228 225 219 214 208 205 203 203 202 200 199 198 197 197 195 196 198 198 197 199 201 201 203 206 209 211 211 211 211 211 212 214 214 216 217 219 220 220 220 221 225 228 231 235 236 234 231 229 229 227 225 224 223 221 220 220 216 216 221 221 226 220 211 210 210 212 214 214 214 215 220 222
119 149 151 115 112 120 117 92 119 157 221 227 182 201 227 281 49 30 27 11 352 342 342 323 263 234 227 224 221 215 211 207 205 205 204 200 198 197 197 196 197 196 196 196 198 199 199 199 202 206 210 210 211 211 211 211 212 214 216 218 219 220 220 220 219 221 225 228 231 234 235 233 231 232 231 231 229 226 219 218 220 220 220 221 220 224 222 214 214 215 218 220 217 217 218 224 227
151 162 159 143 128 133 132 102 158 202 199 219 212 199 213 224 54 29 17 9 1 356 351 345 331 284 241 225 220 217 215 212 208 208 206 201 196 193 195 196 195 194 193 195 196 198 198 197 200 202 206 209 210 210 211 211 211 213 216 218 219 220 221 221 220 221 223 225 227 232 236 235 235 236 234 234 233 229 223 218 219 221 221 221 222 225 223 217 216 218 221 222 222 224 226 232 232
202 190 176 176 154 158 180 162 180 205 174 78 219 197 190 106 68 30 21 16 7 6 359 349 344 335 307 255 226 214 211 210 209 208 204 203 196 191 192 193 191 190 191 193 196 198 197 198 201 200 203 208 209 209 210 210 211 213 215 217 218 220 222 223 224 225 227 227 229 232 236 237 238 239 238 238 236 234 231 227 224 222 221 220 220 224 225 221 218 221 225 226 227 229 233 242 240
185 184 183 187 173 174 185 166 152 198 177 114 215 208 174 119 78 21 30 26 9 9 9 2 356 348 339 319 254 219 212 209 209 207 202 203 200 194 193 191 189 190 192 194 195 196 195 197 201 202 204 208 209 209 210 211 213 215 216 217 218 220 221 223 225 227 229 230 231 233 237 239 241 242 244 244 243 241 237 236 234 232 230 226 221 223 227 227 223 224 228 229 231 234 239 249 248
160 176 210 200 188 186 186 177 171 172 149 105 160 205 177 138 105 26 35 31 20 19 16 16 15 5 358 357 335 239 222 215 212 210 206 205 201 197 194 191 190 192 193 195 194 193 194 196 201 203 204 206 208 208 209 211 213 215 216 217 218 220 221 223 225 227 230 232 233 234 237 240 242 245 247 249 250 247 243 241 239 237 236 232 225 224 228 231 228 229 232 232 234 242 249 252 250
115 54 239 213 221 243 145 163 165 153 142 121 166 172 59 126 113 43 28 25 25 22 20 22 19 13 12 14 8 342 279 238 221 213 209 208 202 198 195 192 192 192 193 194 194 192 193 196 202 206 206 207 209 209 210 212 214 215 216 217 218 220 221 223 225 228 231 233 234 235 238 240 242 245 249 251 251 249 246 242 240 238 237 232 226 224 228 232 232 234 237 237 239 248 257 257 251
157 168 188 81 350 320 95 128 58 149 177 163 155 116 69 140 128 26 16 21 25 23 22 23 20 17 18 15 7 358 343 315 270 236 217 209 202 199 197 195 193 193 193 194 192 192 194 197 201 204 206 206 208 210 211 212 213 214 216 217 218 220 221 223 225 227 229 230 232 234 238 241 242 244 248 249 249 247 245 243 242 241 239 235 231 228 228 230 233 238 239 240 244 249 258 260 250
218 174 127 91 337 298 6 155 147 182 190 151 77 96 68 117 197 11 10 16 22 21 21 23 24 23 21 14 5 357 348 336 322 290 240 215 204 201 199 198 197 195 195 195 194 194 197 200 201 202 202 203 207 209 210 211 212 213 215 217 218 219 221 222 224 226 228 229 230 232 235 239 241 242 244 246 248 248 246 244 244 244 244 242 239 235 232 231 233 238 240 243 246 247 253 256 252
37 87 89 88 198 181 192 184 170 185 186 135 102 110 62 37 9 6 8 11 13 15 16 20 23 23 20 15 7 0 353 346 339 320 272 229 211 205 201 200 201 197 194 195 195 195 197 199 200 202 203 204 207 208 208 212 214 212 214 217 218 220 221 221 223 225 227 228 230 231 233 236 239 240 242 245 247 249 249 247 247 249 250 248 245 242 239 236 234 238 241 243 245 246 248 250 252
61 107 80 355 330 207 185 169 186 198 180 147 140 138 72 41 13 7 11 8 6 10 12 16 20 19 19 17 11 7 1 352 344 330 294 244 221 212 206 203 202 199 195 195 195 195 198 199 199 201 201 203 205 205 207 212 212 211 213 217 218 219 221 221 223 225 226 228 230 232 234 236 238 240 242 244 247 249 250 250 251 252 254 253 250 246 244 242 239 241 243 242 243 246 246 245 248
23 69 45 27 356 294 152 72 17 287 195 164 158 142 82 49 15 9 13 10 10 12 10 11 17 19 22 21 16 13 10 5 356 347 325 253 221 212 209 208 205 200 195 194 195 197 198 199 199 200 199 199 201 202 205 209 209 209 213 216 218 219 221 221 223 224 226 227 230 232 234 236 238 240 242 244 246 248 250 251 253 254 255 255 253 250 248 247 246 246 247 246 247 249 247 245 247
34 48 32 9 358 223 189 170 122 11 324 179 157 139 96 52 18 15 17 15 15 13 8 10 15 16 18 23 23 19 16 15 9 4 3 345 238 212 209 207 204 201 196 194 196 196 197 199 199 200 200 201 202 201 203 208 209 209 213 216 216 218 220 220 220 222 224 226 229 232 234 235 237 239 242 243 245 247 250 252 253 254 255 255 255 254 252 251 250 251 251 251 251 252 251 248 249